Time,TemperatureF,DewpointF,PressureIn,WindDirection,WindDirectionDegrees,WindSpeedMPH,WindSpeedGustMPH,Humidity,HourlyPrecipIn,Conditions,Clouds,dailyrainin,SoftwareType,DateUTC
2013-04-25 00:04:00,33.6,31.8,29.90,WNW,283,0.0,0.0,93,0.00,,,0.00,Wunderground v.1.15,2013-04-25 05:04:00,
2013-04-25 00:10:00,33.6,31.8,29.90,West,260,0.0,0.0,93,0.00,,,0.00,Wunderground v.1.15,2013-04-25 05:10:00,
2013-04-25 00:15:00,33.6,31.8,29.90,West,279,0.0,0.0,93,0.00,,,0.00,Wunderground v.1.15,2013-04-25 05:15:00,
2013-04-25 00:21:00,33.6,32.1,29.91,West,265,0.0,0.0,94,0.00,,,0.00,Wunderground v.1.15,2013-04-25 05:21:00,
2013-04-25 00:27:00,33.6,32.1,29.91,WNW,286,0.0,0.0,94,0.00,,,0.00,Wunderground v.1.15,2013-04-25 05:27:00,
2013-04-25 00:33:00,33.6,32.1,29.91,West,267,0.0,0.0,94,0.00,,,0.00,Wunderground v.1.15,2013-04-25 05:33:00,
2013-04-25 00:39:00,33.6,32.1,29.91,West,277,0.0,0.0,94,0.00,,,0.00,Wunderground v.1.15,2013-04-25 05:39:00,
2013-04-25 00:45:00,33.6,32.1,29.91,West,271,0.0,0.0,94,0.00,,,0.00,Wunderground v.1.15,2013-04-25 05:45:00,
2013-04-25 00:51:00,33.7,32.2,29.91,West,276,0.0,0.0,94,0.00,,,0.00,Wunderground v.1.15,2013-04-25 05:51:00,
2013-04-25 00:56:00,33.7,32.2,29.91,NW,306,0.0,0.0,94,0.00,,,0.00,Wunderground v.1.15,2013-04-25 05:56:00,
2013-04-25 01:02:00,33.7,32.2,29.91,NW,319,0.0,0.0,94,0.00,,,0.00,Wunderground v.1.15,2013-04-25 06:02:00,
2013-04-25 01:08:00,33.8,32.3,29.91,West,278,0.0,0.0,94,0.00,,,0.00,Wunderground v.1.15,2013-04-25 06:08:00,
2013-04-25 01:14:00,33.8,32.3,29.92,WNW,288,0.0,0.0,94,0.00,,,0.00,Wunderground v.1.15,2013-04-25 06:14:00,
2013-04-25 01:20:00,33.8,32.3,29.91,WNW,286,0.0,0.0,94,0.00,,,0.00,Wunderground v.1.15,2013-04-25 06:20:00,
2013-04-25 01:25:00,33.8,32.3,29.92,West,278,0.0,0.0,94,0.00,,,0.00,Wunderground v.1.15,2013-04-25 06:25:00,
2013-04-25 01:31:00,33.7,31.9,29.92,West,262,0.0,0.0,93,0.00,,,0.00,Wunderground v.1.15,2013-04-25 06:31:00,
2013-04-25 01:36:00,33.5,31.7,29.92,West,261,0.0,0.0,93,0.00,,,0.00,Wunderground v.1.15,2013-04-25 06:36:00,
2013-04-25 01:42:00,33.3,31.5,29.92,West,263,0.0,0.0,93,0.00,,,0.00,Wunderground v.1.15,2013-04-25 06:42:00,
2013-04-25 01:48:00,33.2,31.4,29.92,West,261,0.0,0.0,93,0.00,,,0.00,Wunderground v.1.15,2013-04-25 06:48:00,
2013-04-25 01:53:00,33.1,31.3,29.92,West,269,0.0,0.0,93,0.00,,,0.00,Wunderground v.1.15,2013-04-25 06:53:00,
2013-04-25 01:59:00,33.1,31.6,29.92,West,264,0.0,0.0,94,0.00,,,0.00,Wunderground v.1.15,2013-04-25 06:59:00,
2013-04-25 02:05:00,33.0,31.2,29.92,West,265,0.0,0.0,93,0.00,,,0.00,Wunderground v.1.15,2013-04-25 07:05:00,
2013-04-25 02:11:00,32.9,31.1,29.92,West,270,0.0,0.0,93,0.00,,,0.00,Wunderground v.1.15,2013-04-25 07:11:00,
2013-04-25 02:16:00,32.8,31.0,29.92,West,270,0.0,0.0,93,0.00,,,0.00,Wunderground v.1.15,2013-04-25 07:16:00,
2013-04-25 02:22:00,32.8,31.0,29.92,WSW,246,0.0,0.0,93,0.00,,,0.00,Wunderground v.1.15,2013-04-25 07:22:00,
2013-04-25 02:27:00,32.8,31.0,29.92,WSW,248,0.0,0.0,93,0.00,,,0.00,Wunderground v.1.15,2013-04-25 07:27:00,
2013-04-25 02:33:00,32.6,30.8,29.93,WSW,255,0.0,0.0,93,0.00,,,0.00,Wunderground v.1.15,2013-04-25 07:33:00,
2013-04-25 02:39:00,32.6,30.8,29.93,WSW,258,0.0,0.0,93,0.00,,,0.00,Wunderground v.1.15,2013-04-25 07:39:00,
2013-04-25 02:45:00,33.0,31.5,29.93,West,272,0.0,0.0,94,0.00,,,0.00,Wunderground v.1.15,2013-04-25 07:45:00,
2013-04-25 02:50:00,33.3,31.8,29.93,NW,306,0.0,0.0,94,0.00,,,0.00,Wunderground v.1.15,2013-04-25 07:50:00,
2013-04-25 02:56:00,33.5,31.7,29.93,West,269,0.0,0.0,93,0.00,,,0.00,Wunderground v.1.15,2013-04-25 07:56:00,
2013-04-25 03:02:00,33.5,31.7,29.93,West,281,0.0,0.0,93,0.00,,,0.00,Wunderground v.1.15,2013-04-25 08:02:00,
2013-04-25 03:07:00,33.5,31.4,29.94,WNW,293,0.0,0.0,92,0.00,,,0.00,Wunderground v.1.15,2013-04-25 08:07:00,
2013-04-25 03:13:00,33.6,31.5,29.94,WNW,288,0.0,0.0,92,0.00,,,0.00,Wunderground v.1.15,2013-04-25 08:13:00,
2013-04-25 03:18:00,33.6,31.5,29.94,WNW,288,0.0,0.0,92,0.00,,,0.00,Wunderground v.1.15,2013-04-25 08:18:00,
2013-04-25 03:24:00,33.4,31.1,29.94,West,279,0.0,0.0,91,0.00,,,0.00,Wunderground v.1.15,2013-04-25 08:24:00,
2013-04-25 03:30:00,33.1,30.8,29.94,West,271,0.0,0.0,91,0.00,,,0.00,Wunderground v.1.15,2013-04-25 08:30:00,
2013-04-25 03:35:00,32.9,30.6,29.94,WNW,285,0.0,0.0,91,0.00,,,0.00,Wunderground v.1.15,2013-04-25 08:35:00,
2013-04-25 03:41:00,32.7,30.4,29.95,West,270,0.0,0.0,91,0.00,,,0.00,Wunderground v.1.15,2013-04-25 08:41:00,
2013-04-25 03:47:00,32.7,30.4,29.95,West,274,0.0,0.0,91,0.00,,,0.00,Wunderground v.1.15,2013-04-25 08:47:00,
2013-04-25 03:53:00,32.7,30.4,29.95,West,274,0.0,0.0,91,0.00,,,0.00,Wunderground v.1.15,2013-04-25 08:53:00,
2013-04-25 03:58:00,32.6,30.3,29.95,WNW,284,0.0,0.0,91,0.00,,,0.00,Wunderground v.1.15,2013-04-25 08:58:00,
2013-04-25 04:04:00,32.6,30.3,29.95,West,275,0.0,0.0,91,0.00,,,0.00,Wunderground v.1.15,2013-04-25 09:04:00,
2013-04-25 04:10:00,32.5,30.2,29.96,West,263,0.0,0.0,91,0.00,,,0.00,Wunderground v.1.15,2013-04-25 09:10:00,
2013-04-25 04:15:00,32.5,30.2,29.96,WNW,288,0.0,0.0,91,0.00,,,0.00,Wunderground v.1.15,2013-04-25 09:15:00,
2013-04-25 04:21:00,32.4,30.1,29.96,WNW,296,0.0,0.0,91,0.00,,,0.00,Wunderground v.1.15,2013-04-25 09:21:00,
2013-04-25 04:27:00,32.4,30.1,29.96,West,273,0.0,0.0,91,0.00,,,0.00,Wunderground v.1.15,2013-04-25 09:27:00,
2013-04-25 04:33:00,32.5,30.2,29.97,West,275,0.0,0.0,91,0.00,,,0.00,Wunderground v.1.15,2013-04-25 09:33:00,
2013-04-25 04:38:00,32.4,30.1,29.97,West,263,0.0,0.0,91,0.00,,,0.00,Wunderground v.1.15,2013-04-25 09:38:00,
2013-04-25 04:44:00,32.4,30.1,29.97,WNW,284,0.0,0.0,91,0.00,,,0.00,Wunderground v.1.15,2013-04-25 09:44:00,
2013-04-25 04:50:00,32.3,30.0,29.98,WNW,286,0.0,0.0,91,0.00,,,0.00,Wunderground v.1.15,2013-04-25 09:50:00,
2013-04-25 04:55:00,32.2,29.9,29.98,WNW,292,0.0,0.0,91,0.00,,,0.00,Wunderground v.1.15,2013-04-25 09:55:00,
2013-04-25 05:00:00,32.2,29.9,29.98,West,281,0.0,0.0,91,0.00,,,0.00,Wunderground v.1.15,2013-04-25 10:00:00,
2013-04-25 05:06:00,32.2,29.9,29.98,West,279,0.0,0.0,91,0.00,,,0.00,Wunderground v.1.15,2013-04-25 10:06:00,
2013-04-25 05:11:00,32.1,29.8,29.98,WNW,292,0.0,0.0,91,0.00,,,0.00,Wunderground v.1.15,2013-04-25 10:11:00,
2013-04-25 05:17:00,32.0,29.7,29.98,West,263,0.0,0.0,91,0.00,,,0.00,Wunderground v.1.15,2013-04-25 10:17:00,
2013-04-25 05:23:00,31.9,29.6,29.99,West,281,0.0,0.0,91,0.00,,,0.00,Wunderground v.1.15,2013-04-25 10:23:00,
2013-04-25 05:28:00,31.8,29.5,29.99,West,269,0.0,0.0,91,0.00,,,0.00,Wunderground v.1.15,2013-04-25 10:28:00,
2013-04-25 05:34:00,31.8,29.5,29.99,WNW,285,0.0,0.0,91,0.00,,,0.00,Wunderground v.1.15,2013-04-25 10:34:00,
2013-04-25 05:40:00,31.8,29.5,30.00,West,275,0.0,0.0,91,0.00,,,0.00,Wunderground v.1.15,2013-04-25 10:40:00,
2013-04-25 05:46:00,31.7,29.4,30.00,WNW,302,0.0,0.0,91,0.00,,,0.00,Wunderground v.1.15,2013-04-25 10:46:00,
2013-04-25 05:51:00,31.6,29.3,30.00,WNW,289,0.0,0.0,91,0.00,,,0.00,Wunderground v.1.15,2013-04-25 10:51:00,
2013-04-25 05:57:00,31.6,29.3,30.00,West,267,0.0,0.0,91,0.00,,,0.00,Wunderground v.1.15,2013-04-25 10:57:00,
2013-04-25 06:03:00,31.6,29.3,30.00,West,279,0.0,0.0,91,0.00,,,0.00,Wunderground v.1.15,2013-04-25 11:03:00,
2013-04-25 06:08:00,31.6,29.3,30.01,WNW,285,0.0,0.0,91,0.00,,,0.00,Wunderground v.1.15,2013-04-25 11:08:00,
2013-04-25 06:14:00,31.6,29.3,30.01,West,271,0.0,0.0,91,0.00,,,0.00,Wunderground v.1.15,2013-04-25 11:14:00,
2013-04-25 06:20:00,31.4,29.1,30.01,West,269,0.0,0.0,91,0.00,,,0.00,Wunderground v.1.15,2013-04-25 11:20:00,
2013-04-25 06:26:00,31.5,29.4,30.01,West,277,0.0,0.0,92,0.00,,,0.00,Wunderground v.1.15,2013-04-25 11:26:00,
2013-04-25 06:31:00,31.5,29.4,30.01,WNW,291,0.0,0.0,92,0.00,,,0.00,Wunderground v.1.15,2013-04-25 11:31:00,
2013-04-25 06:37:00,31.5,29.4,30.02,WNW,294,0.0,0.0,92,0.00,,,0.00,Wunderground v.1.15,2013-04-25 11:37:00,
2013-04-25 06:43:00,31.4,29.3,30.02,NW,314,0.0,0.0,92,0.00,,,0.00,Wunderground v.1.15,2013-04-25 11:43:00,
2013-04-25 06:48:00,31.4,29.3,30.02,West,275,0.0,0.0,92,0.00,,,0.00,Wunderground v.1.15,2013-04-25 11:48:00,
2013-04-25 06:54:00,31.4,29.3,30.02,WNW,288,0.0,0.0,92,0.00,,,0.00,Wunderground v.1.15,2013-04-25 11:54:00,
2013-04-25 07:00:00,31.5,29.4,30.02,WNW,300,0.0,0.0,92,0.00,,,0.00,Wunderground v.1.15,2013-04-25 12:00:00,
2013-04-25 07:05:00,31.6,29.5,30.03,North,360,0.0,0.0,92,0.00,,,0.00,Wunderground v.1.15,2013-04-25 12:05:00,
2013-04-25 07:11:00,31.8,29.7,30.03,West,267,0.0,0.0,92,0.00,,,0.00,Wunderground v.1.15,2013-04-25 12:11:00,
2013-04-25 07:17:00,31.9,29.8,30.04,West,277,0.0,0.0,92,0.00,,,0.00,Wunderground v.1.15,2013-04-25 12:17:00,
2013-04-25 07:22:00,32.1,30.0,30.04,West,281,0.0,0.0,92,0.00,,,0.00,Wunderground v.1.15,2013-04-25 12:22:00,
2013-04-25 07:28:00,32.2,30.1,30.05,WSW,252,0.0,0.0,92,0.00,,,0.00,Wunderground v.1.15,2013-04-25 12:28:00,
2013-04-25 07:34:00,32.3,30.2,30.05,West,269,0.0,0.0,92,0.00,,,0.00,Wunderground v.1.15,2013-04-25 12:34:00,
2013-04-25 07:39:00,32.3,30.2,30.06,WSW,254,0.0,0.0,92,0.00,,,0.00,Wunderground v.1.15,2013-04-25 12:39:00,
2013-04-25 07:45:00,32.3,30.0,30.06,WSW,257,0.0,0.0,91,0.00,,,0.00,Wunderground v.1.15,2013-04-25 12:45:00,
2013-04-25 07:51:00,32.4,30.1,30.06,West,267,0.0,0.0,91,0.00,,,0.00,Wunderground v.1.15,2013-04-25 12:51:00,
2013-04-25 07:56:00,32.5,30.2,30.06,West,273,0.0,0.0,91,0.00,,,0.00,Wunderground v.1.15,2013-04-25 12:56:00,
2013-04-25 08:02:00,32.7,30.4,30.07,WSW,252,0.0,0.0,91,0.00,,,0.00,Wunderground v.1.15,2013-04-25 13:02:00,
2013-04-25 08:08:00,32.8,30.5,30.07,WSW,257,0.0,0.0,91,0.00,,,0.00,Wunderground v.1.15,2013-04-25 13:08:00,
2013-04-25 08:14:00,32.9,30.3,30.08,WNW,294,0.0,0.0,90,0.00,,,0.00,Wunderground v.1.15,2013-04-25 13:14:00,
2013-04-25 08:19:00,33.0,30.4,30.08,West,281,0.0,0.0,90,0.00,,,0.00,Wunderground v.1.15,2013-04-25 13:19:00,
2013-04-25 08:25:00,33.3,31.0,30.08,West,271,0.0,0.0,91,0.00,,,0.00,Wunderground v.1.15,2013-04-25 13:25:00,
2013-04-25 08:31:00,33.4,30.8,30.08,WNW,283,0.0,0.0,90,0.00,,,0.01,Wunderground v.1.15,2013-04-25 13:31:00,
2013-04-25 08:36:00,33.6,31.0,30.08,West,271,0.0,0.0,90,0.00,,,0.01,Wunderground v.1.15,2013-04-25 13:36:00,
2013-04-25 08:42:00,33.8,31.2,30.09,West,269,0.0,0.0,90,0.00,,,0.01,Wunderground v.1.15,2013-04-25 13:42:00,
2013-04-25 08:48:00,34.0,31.4,30.09,West,279,0.0,0.0,90,0.00,,,0.01,Wunderground v.1.15,2013-04-25 13:48:00,
2013-04-25 08:53:00,34.2,31.3,30.09,WNW,287,0.0,0.0,89,0.00,,,0.01,Wunderground v.1.15,2013-04-25 13:53:00,
2013-04-25 08:59:00,34.4,31.8,30.10,West,269,0.0,0.0,90,0.00,,,0.01,Wunderground v.1.15,2013-04-25 13:59:00,
2013-04-25 09:05:00,34.5,31.6,30.10,West,263,0.0,0.0,89,0.00,,,0.02,Wunderground v.1.15,2013-04-25 14:05:00,
2013-04-25 09:10:00,34.5,31.6,30.10,West,261,0.0,0.0,89,0.00,,,0.02,Wunderground v.1.15,2013-04-25 14:10:00,
2013-04-25 09:16:00,34.6,31.7,30.10,WSW,257,0.0,0.0,89,0.00,,,0.02,Wunderground v.1.15,2013-04-25 14:16:00,
2013-04-25 09:22:00,35.0,32.1,30.10,WSW,252,0.0,0.0,89,0.04,,,0.03,Wunderground v.1.15,2013-04-25 14:22:00,
2013-04-25 09:28:00,35.0,32.1,30.10,WSW,256,0.0,0.0,89,0.11,,,0.04,Wunderground v.1.15,2013-04-25 14:28:00,
2013-04-25 09:33:00,35.1,32.2,30.10,WSW,251,0.0,0.0,89,0.07,,,0.05,Wunderground v.1.15,2013-04-25 14:33:00,
2013-04-25 09:39:00,35.1,32.2,30.11,West,262,0.0,0.0,89,0.14,,,0.06,Wunderground v.1.15,2013-04-25 14:39:00,
2013-04-25 09:45:00,35.0,31.8,30.11,West,267,0.0,0.0,88,0.07,,,0.07,Wunderground v.1.15,2013-04-25 14:45:00,
2013-04-25 09:50:00,35.2,32.0,30.11,WSW,246,0.0,0.0,88,0.07,,,0.07,Wunderground v.1.15,2013-04-25 14:50:00,
2013-04-25 09:56:00,35.2,32.0,30.11,WSW,257,0.0,0.0,88,0.09,,,0.08,Wunderground v.1.15,2013-04-25 14:56:00,
2013-04-25 10:02:00,35.0,31.8,30.12,WSW,255,0.0,0.0,88,0.06,,,0.09,Wunderground v.1.15,2013-04-25 15:02:00,
2013-04-25 10:07:00,35.1,31.9,30.12,WSW,255,0.0,0.0,88,0.06,,,0.09,Wunderground v.1.15,2013-04-25 15:07:00,
2013-04-25 10:13:00,35.4,31.9,30.12,WNW,284,0.0,0.0,87,0.06,,,0.10,Wunderground v.1.15,2013-04-25 15:13:00,
2013-04-25 10:19:00,35.3,32.1,30.13,WSW,257,0.0,0.0,88,0.06,,,0.10,Wunderground v.1.15,2013-04-25 15:19:00,
2013-04-25 10:25:00,35.2,32.0,30.13,WSW,254,0.0,0.0,88,0.05,,,0.10,Wunderground v.1.15,2013-04-25 15:25:00,
2013-04-25 10:30:00,35.3,32.1,30.13,WSW,243,0.0,0.0,88,0.00,,,0.10,Wunderground v.1.15,2013-04-25 15:30:00,
2013-04-25 10:36:00,35.3,32.4,30.13,WSW,254,0.0,0.0,89,0.00,,,0.11,Wunderground v.1.15,2013-04-25 15:36:00,
2013-04-25 10:42:00,35.2,32.3,30.14,West,259,0.0,0.0,89,0.00,,,0.11,Wunderground v.1.15,2013-04-25 15:42:00,
2013-04-25 10:47:00,35.3,32.1,30.14,West,268,0.0,0.0,88,0.00,,,0.11,Wunderground v.1.15,2013-04-25 15:47:00,
2013-04-25 10:53:00,35.4,32.2,30.14,West,276,0.0,0.0,88,0.00,,,0.11,Wunderground v.1.15,2013-04-25 15:53:00,
2013-04-25 10:58:00,35.5,32.3,30.14,WNW,294,0.0,0.0,88,0.00,,,0.11,Wunderground v.1.15,2013-04-25 15:58:00,
2013-04-25 11:04:00,35.7,32.8,30.14,WSW,238,0.0,0.0,89,0.00,,,0.11,Wunderground v.1.15,2013-04-25 16:04:00,
2013-04-25 11:09:00,35.8,32.9,30.15,West,265,0.0,0.0,89,0.00,,,0.11,Wunderground v.1.15,2013-04-25 16:09:00,
2013-04-25 11:15:00,35.9,32.4,30.15,West,278,0.0,0.0,87,0.00,,,0.11,Wunderground v.1.15,2013-04-25 16:15:00,
2013-04-25 11:20:00,36.0,32.8,30.15,West,278,0.0,0.0,88,0.00,,,0.11,Wunderground v.1.15,2013-04-25 16:20:00,
2013-04-25 11:26:00,36.5,33.3,30.15,West,262,0.0,0.0,88,0.00,,,0.11,Wunderground v.1.15,2013-04-25 16:26:00,
2013-04-25 11:32:00,36.9,33.4,30.15,WSW,247,0.0,0.0,87,0.00,,,0.11,Wunderground v.1.15,2013-04-25 16:32:00,
2013-04-25 11:37:00,37.0,33.2,30.15,WNW,287,0.0,0.0,86,0.00,,,0.11,Wunderground v.1.15,2013-04-25 16:37:00,
2013-04-25 11:43:00,37.5,34.0,30.15,WNW,284,0.0,0.0,87,0.00,,,0.11,Wunderground v.1.15,2013-04-25 16:43:00,
2013-04-25 11:49:00,37.9,33.8,30.15,West,270,0.0,0.0,85,0.00,,,0.11,Wunderground v.1.15,2013-04-25 16:49:00,
2013-04-25 11:55:00,37.9,33.8,30.16,WNW,294,0.0,0.0,85,0.00,,,0.11,Wunderground v.1.15,2013-04-25 16:55:00,
2013-04-25 12:01:00,37.6,33.2,30.16,NW,304,0.0,0.0,84,0.00,,,0.11,Wunderground v.1.15,2013-04-25 17:01:00,
2013-04-25 12:06:00,37.5,33.4,30.16,WNW,292,0.0,0.0,85,0.00,,,0.11,Wunderground v.1.15,2013-04-25 17:06:00,
2013-04-25 12:12:00,37.6,32.9,30.17,West,277,0.0,0.0,83,0.00,,,0.11,Wunderground v.1.15,2013-04-25 17:12:00,
2013-04-25 12:17:00,37.5,32.8,30.17,WNW,289,0.0,0.0,83,0.00,,,0.11,Wunderground v.1.15,2013-04-25 17:17:00,
2013-04-25 12:23:00,37.9,33.2,30.17,West,271,0.0,0.0,83,0.00,,,0.11,Wunderground v.1.15,2013-04-25 17:23:00,
2013-04-25 12:29:00,38.9,33.9,30.17,West,277,0.0,0.0,82,0.00,,,0.11,Wunderground v.1.15,2013-04-25 17:29:00,
2013-04-25 12:34:00,39.2,33.5,30.17,West,276,0.0,0.0,80,0.00,,,0.11,Wunderground v.1.15,2013-04-25 17:34:00,
2013-04-25 12:40:00,39.0,33.7,30.17,WNW,283,0.0,0.0,81,0.00,,,0.11,Wunderground v.1.15,2013-04-25 17:40:00,
2013-04-25 12:45:00,39.1,33.1,30.17,West,264,0.0,0.0,79,0.00,,,0.11,Wunderground v.1.15,2013-04-25 17:45:00,
2013-04-25 12:51:00,39.3,33.0,30.17,West,265,0.0,0.0,78,0.00,,,0.11,Wunderground v.1.15,2013-04-25 17:51:00,
2013-04-25 12:56:00,39.8,33.2,30.17,WNW,282,0.0,0.0,77,0.00,,,0.11,Wunderground v.1.15,2013-04-25 17:56:00,
2013-04-25 13:02:00,40.0,33.4,30.17,WSW,246,0.0,0.0,77,0.00,,,0.11,Wunderground v.1.15,2013-04-25 18:02:00,
2013-04-25 13:08:00,40.0,34.0,30.17,WSW,248,0.0,0.0,79,0.00,,,0.11,Wunderground v.1.15,2013-04-25 18:08:00,
2013-04-25 13:14:00,40.8,34.8,30.17,WSW,250,0.0,0.0,79,0.00,,,0.11,Wunderground v.1.15,2013-04-25 18:14:00,
2013-04-25 13:20:00,40.9,32.9,30.17,West,261,0.0,0.0,73,0.00,,,0.11,Wunderground v.1.15,2013-04-25 18:20:00,
2013-04-25 13:26:00,41.3,34.3,30.17,WSW,252,0.0,0.0,76,0.00,,,0.11,Wunderground v.1.15,2013-04-25 18:26:00,
2013-04-25 13:31:00,41.4,34.7,30.17,WSW,250,0.0,0.0,77,0.00,,,0.11,Wunderground v.1.15,2013-04-25 18:31:00,
2013-04-25 13:37:00,41.9,34.9,30.17,WSW,245,0.0,0.0,76,0.00,,,0.11,Wunderground v.1.15,2013-04-25 18:37:00,
2013-04-25 13:42:00,41.7,32.3,30.17,West,272,0.0,0.0,69,0.00,,,0.11,Wunderground v.1.15,2013-04-25 18:42:00,
2013-04-25 13:48:00,41.3,33.0,30.17,WNW,294,0.0,0.0,72,0.00,,,0.11,Wunderground v.1.15,2013-04-25 18:48:00,
2013-04-25 13:54:00,41.0,33.0,30.18,West,259,0.0,0.0,73,0.00,,,0.11,Wunderground v.1.15,2013-04-25 18:54:00,
2013-04-25 14:00:00,41.4,33.4,30.18,WSW,237,0.0,0.0,73,0.00,,,0.11,Wunderground v.1.15,2013-04-25 19:00:00,
2013-04-25 14:06:00,41.5,33.8,30.18,WSW,249,0.0,0.0,74,0.00,,,0.11,Wunderground v.1.15,2013-04-25 19:06:00,
2013-04-25 14:11:00,42.2,34.5,30.18,WSW,250,0.0,0.0,74,0.00,,,0.11,Wunderground v.1.15,2013-04-25 19:11:00,
2013-04-25 14:17:00,42.6,34.9,30.18,SW,236,0.0,0.0,74,0.00,,,0.11,Wunderground v.1.15,2013-04-25 19:17:00,
2013-04-25 14:22:00,42.1,34.4,30.18,SW,236,0.0,0.0,74,0.00,,,0.11,Wunderground v.1.15,2013-04-25 19:22:00,
2013-04-25 14:28:00,42.3,33.2,30.17,WSW,248,0.0,0.0,70,0.00,,,0.11,Wunderground v.1.15,2013-04-25 19:28:00,
2013-04-25 14:34:00,41.9,33.9,30.17,WSW,255,0.0,0.0,73,0.00,,,0.11,Wunderground v.1.15,2013-04-25 19:34:00,
2013-04-25 14:39:00,42.2,34.2,30.18,WSW,247,0.0,0.0,73,0.00,,,0.11,Wunderground v.1.15,2013-04-25 19:39:00,
2013-04-25 14:45:00,42.5,34.1,30.18,West,261,0.0,0.0,72,0.00,,,0.11,Wunderground v.1.15,2013-04-25 19:45:00,
2013-04-25 14:51:00,42.0,32.2,30.17,WSW,254,0.0,0.0,68,0.00,,,0.11,Wunderground v.1.15,2013-04-25 19:51:00,
2013-04-25 14:56:00,42.2,32.8,30.18,SW,233,0.0,0.0,69,0.00,,,0.11,Wunderground v.1.15,2013-04-25 19:56:00,
2013-04-25 15:02:00,42.6,32.4,30.18,West,270,0.0,0.0,67,0.00,,,0.11,Wunderground v.1.15,2013-04-25 20:02:00,
2013-04-25 15:08:00,42.6,31.7,30.18,West,259,0.0,0.0,65,0.00,,,0.11,Wunderground v.1.15,2013-04-25 20:08:00,
2013-04-25 15:13:00,42.7,33.2,30.17,West,277,0.0,0.0,69,0.00,,,0.11,Wunderground v.1.15,2013-04-25 20:13:00,
2013-04-25 15:19:00,42.9,31.6,30.17,West,267,0.0,0.0,64,0.00,,,0.11,Wunderground v.1.15,2013-04-25 20:19:00,
2013-04-25 15:25:00,43.4,34.3,30.17,WNW,294,0.0,0.0,70,0.00,,,0.11,Wunderground v.1.15,2013-04-25 20:25:00,
2013-04-25 15:30:00,43.1,32.9,30.17,West,278,0.0,0.0,67,0.00,,,0.11,Wunderground v.1.15,2013-04-25 20:30:00,
2013-04-25 15:36:00,43.3,33.1,30.17,SW,223,0.0,0.0,67,0.00,,,0.11,Wunderground v.1.15,2013-04-25 20:36:00,
2013-04-25 15:42:00,43.8,34.3,30.17,WSW,238,0.0,0.0,69,0.00,,,0.11,Wunderground v.1.15,2013-04-25 20:42:00,
2013-04-25 15:47:00,44.0,33.4,30.17,SW,215,0.0,0.0,66,0.00,,,0.11,Wunderground v.1.15,2013-04-25 20:47:00,
2013-04-25 15:53:00,43.6,33.4,30.18,WSW,255,0.0,0.0,67,0.00,,,0.11,Wunderground v.1.15,2013-04-25 20:53:00,
2013-04-25 15:58:00,43.3,32.7,30.18,West,261,0.0,0.0,66,0.00,,,0.11,Wunderground v.1.15,2013-04-25 20:58:00,
2013-04-25 16:04:00,42.9,33.4,30.18,WSW,246,0.0,0.0,69,0.00,,,0.11,Wunderground v.1.15,2013-04-25 21:04:00,
2013-04-25 16:10:00,43.5,33.6,30.17,WSW,247,0.0,0.0,68,0.00,,,0.11,Wunderground v.1.15,2013-04-25 21:10:00,
2013-04-25 16:16:00,44.2,34.3,30.18,WSW,252,0.0,0.0,68,0.00,,,0.11,Wunderground v.1.15,2013-04-25 21:16:00,
2013-04-25 16:22:00,43.8,32.4,30.18,WSW,238,0.0,0.0,64,0.00,,,0.11,Wunderground v.1.15,2013-04-25 21:22:00,
2013-04-25 16:28:00,43.9,32.5,30.18,West,271,0.0,0.0,64,0.00,,,0.11,Wunderground v.1.15,2013-04-25 21:28:00,
2013-04-25 16:34:00,44.4,33.7,30.18,SW,233,0.0,0.0,66,0.00,,,0.11,Wunderground v.1.15,2013-04-25 21:34:00,
2013-04-25 16:40:00,43.6,32.6,30.18,WSW,239,0.0,0.0,65,0.00,,,0.11,Wunderground v.1.15,2013-04-25 21:40:00,
2013-04-25 16:45:00,43.8,33.6,30.18,WSW,252,0.0,0.0,67,0.00,,,0.11,Wunderground v.1.15,2013-04-25 21:45:00,
2013-04-25 16:51:00,44.2,33.6,30.18,WSW,257,0.0,0.0,66,0.00,,,0.11,Wunderground v.1.15,2013-04-25 21:51:00,
2013-04-25 16:57:00,43.8,33.2,30.18,West,265,0.0,0.0,66,0.00,,,0.11,Wunderground v.1.15,2013-04-25 21:57:00,
2013-04-25 17:02:00,44.2,33.6,30.18,WSW,253,0.0,0.0,66,0.00,,,0.11,Wunderground v.1.15,2013-04-25 22:02:00,
2013-04-25 17:08:00,43.7,33.5,30.19,West,262,0.0,0.0,67,0.00,,,0.11,Wunderground v.1.15,2013-04-25 22:08:00,
2013-04-25 17:14:00,44.1,34.2,30.19,WSW,255,0.0,0.0,68,0.00,,,0.11,Wunderground v.1.15,2013-04-25 22:14:00,
2013-04-25 17:20:00,44.0,33.4,30.19,West,259,0.0,0.0,66,0.00,,,0.11,Wunderground v.1.15,2013-04-25 22:20:00,
2013-04-25 17:25:00,43.8,33.2,30.19,WSW,254,0.0,0.0,66,0.00,,,0.11,Wunderground v.1.15,2013-04-25 22:25:00,
2013-04-25 17:31:00,43.4,32.4,30.19,SW,227,0.0,0.0,65,0.00,,,0.11,Wunderground v.1.15,2013-04-25 22:31:00,
2013-04-25 17:36:00,43.3,32.7,30.19,WSW,242,0.0,0.0,66,0.00,,,0.11,Wunderground v.1.15,2013-04-25 22:36:00,
2013-04-25 17:42:00,43.8,33.2,30.19,WSW,237,0.0,0.0,66,0.00,,,0.11,Wunderground v.1.15,2013-04-25 22:42:00,
2013-04-25 17:48:00,44.2,32.0,30.18,WSW,258,0.0,0.0,62,0.00,,,0.11,Wunderground v.1.15,2013-04-25 22:48:00,
2013-04-25 17:53:00,44.7,33.3,30.19,SW,236,0.0,0.0,64,0.00,,,0.11,Wunderground v.1.15,2013-04-25 22:53:00,
2013-04-25 17:59:00,44.4,33.0,30.19,WSW,252,0.0,0.0,64,0.00,,,0.11,Wunderground v.1.15,2013-04-25 22:59:00,
2013-04-25 18:04:00,44.4,33.0,30.19,SW,228,0.0,0.0,64,0.00,,,0.11,Wunderground v.1.15,2013-04-25 23:04:00,
2013-04-25 18:10:00,44.7,32.1,30.18,WSW,238,0.0,0.0,61,0.00,,,0.11,Wunderground v.1.15,2013-04-25 23:10:00,
2013-04-25 18:16:00,44.9,31.4,30.18,WSW,242,0.0,0.0,59,0.00,,,0.11,Wunderground v.1.15,2013-04-25 23:16:00,
2013-04-25 18:22:00,44.9,33.5,30.18,SW,229,0.0,0.0,64,0.00,,,0.11,Wunderground v.1.15,2013-04-25 23:22:00,
2013-04-25 18:28:00,45.0,31.5,30.18,WSW,249,0.0,0.0,59,0.00,,,0.11,Wunderground v.1.15,2013-04-25 23:28:00,
2013-04-25 18:34:00,44.6,32.4,30.18,WSW,242,0.0,0.0,62,0.00,,,0.11,Wunderground v.1.15,2013-04-25 23:34:00,
2013-04-25 18:40:00,44.6,31.1,30.18,SW,222,0.0,0.0,59,0.00,,,0.11,Wunderground v.1.15,2013-04-25 23:40:00,
2013-04-25 18:46:00,44.6,32.0,30.18,WSW,250,0.0,0.0,61,0.00,,,0.11,Wunderground v.1.15,2013-04-25 23:46:00,
2013-04-25 18:51:00,44.5,31.5,30.18,WSW,238,0.0,0.0,60,0.00,,,0.11,Wunderground v.1.15,2013-04-25 23:51:00,
2013-04-25 18:57:00,44.6,32.0,30.18,SW,233,0.0,0.0,61,0.00,,,0.11,Wunderground v.1.15,2013-04-25 23:57:00,
2013-04-25 19:03:00,44.5,31.9,30.18,WSW,257,0.0,0.0,61,0.00,,,0.11,Wunderground v.1.15,2013-04-26 00:03:00,
2013-04-25 19:09:00,44.5,31.9,30.18,WSW,254,0.0,0.0,61,0.00,,,0.11,Wunderground v.1.15,2013-04-26 00:09:00,
2013-04-25 19:14:00,44.1,32.7,30.18,SW,233,0.0,0.0,64,0.00,,,0.11,Wunderground v.1.15,2013-04-26 00:14:00,
2013-04-25 19:20:00,43.6,32.6,30.18,SW,231,0.0,0.0,65,0.00,,,0.11,Wunderground v.1.15,2013-04-26 00:20:00,
2013-04-25 19:26:00,43.0,32.4,30.18,WSW,244,0.0,0.0,66,0.00,,,0.11,Wunderground v.1.15,2013-04-26 00:26:00,
2013-04-25 19:32:00,42.5,32.3,30.18,WSW,248,0.0,0.0,67,0.00,,,0.11,Wunderground v.1.15,2013-04-26 00:32:00,
2013-04-25 19:38:00,42.2,32.4,30.18,SW,230,0.0,0.0,68,0.00,,,0.11,Wunderground v.1.15,2013-04-26 00:38:00,
2013-04-25 19:44:00,41.8,32.0,30.18,SW,229,0.0,0.0,68,0.00,,,0.11,Wunderground v.1.15,2013-04-26 00:44:00,
2013-04-25 19:50:00,41.4,31.6,30.18,SW,229,0.0,0.0,68,0.00,,,0.11,Wunderground v.1.15,2013-04-26 00:50:00,
2013-04-25 19:55:00,41.1,31.0,30.18,SW,230,0.0,0.0,67,0.00,,,0.11,Wunderground v.1.15,2013-04-26 00:55:00,
2013-04-25 20:00:00,40.8,31.4,30.18,SW,215,0.0,0.0,69,0.00,,,0.11,Wunderground v.1.15,2013-04-26 01:00:00,
2013-04-25 20:06:00,40.4,30.7,30.19,SSW,205,0.0,0.0,68,0.00,,,0.11,Wunderground v.1.15,2013-04-26 01:06:00,
2013-04-25 20:12:00,40.1,30.4,30.19,SW,223,0.0,0.0,68,0.00,,,0.11,Wunderground v.1.15,2013-04-26 01:12:00,
2013-04-25 20:18:00,39.9,30.5,30.19,SW,219,0.0,0.0,69,0.00,,,0.11,Wunderground v.1.15,2013-04-26 01:18:00,
2013-04-25 20:24:00,39.6,30.3,30.19,SW,215,0.0,0.0,69,0.00,,,0.11,Wunderground v.1.15,2013-04-26 01:24:00,
2013-04-25 20:30:00,39.3,30.0,30.19,SW,236,0.0,0.0,69,0.00,,,0.11,Wunderground v.1.15,2013-04-26 01:30:00,
2013-04-25 20:36:00,39.1,30.1,30.19,SW,226,0.0,0.0,70,0.00,,,0.11,Wunderground v.1.15,2013-04-26 01:36:00,
2013-04-25 20:42:00,38.8,30.5,30.20,SW,225,0.0,0.0,72,0.00,,,0.11,Wunderground v.1.15,2013-04-26 01:42:00,
2013-04-25 20:47:00,38.5,30.3,30.20,SSW,207,0.0,0.0,72,0.00,,,0.11,Wunderground v.1.15,2013-04-26 01:47:00,
2013-04-25 20:53:00,38.2,30.0,30.20,SW,214,0.0,0.0,72,0.00,,,0.11,Wunderground v.1.15,2013-04-26 01:53:00,
2013-04-25 20:59:00,37.9,30.0,30.20,SW,231,0.0,0.0,73,0.00,,,0.11,Wunderground v.1.15,2013-04-26 01:59:00,
2013-04-25 21:05:00,37.7,29.8,30.20,SSW,210,0.0,0.0,73,0.00,,,0.11,Wunderground v.1.15,2013-04-26 02:05:00,
2013-04-25 21:11:00,37.5,29.6,30.21,SSW,210,0.0,0.0,73,0.00,,,0.11,Wunderground v.1.15,2013-04-26 02:11:00,
2013-04-25 21:17:00,37.4,29.5,30.21,SSW,206,0.0,0.0,73,0.00,,,0.11,Wunderground v.1.15,2013-04-26 02:17:00,
2013-04-25 21:22:00,37.4,29.5,30.21,SSW,211,0.0,0.0,73,0.00,,,0.11,Wunderground v.1.15,2013-04-26 02:22:00,
2013-04-25 21:27:00,37.3,29.8,30.21,SSW,201,0.0,0.0,74,0.00,,,0.11,Wunderground v.1.15,2013-04-26 02:27:00,
2013-04-25 21:33:00,37.1,29.6,30.21,SSW,205,0.0,0.0,74,0.00,,,0.11,Wunderground v.1.15,2013-04-26 02:33:00,
2013-04-25 21:39:00,36.9,29.4,30.21,SSW,205,0.0,0.0,74,0.00,,,0.11,Wunderground v.1.15,2013-04-26 02:39:00,
2013-04-25 21:45:00,36.9,29.4,30.21,SSW,211,0.0,0.0,74,0.00,,,0.11,Wunderground v.1.15,2013-04-26 02:45:00,
2013-04-25 21:51:00,36.7,29.5,30.22,SSW,199,0.0,0.0,75,0.00,,,0.11,Wunderground v.1.15,2013-04-26 02:51:00,
2013-04-25 21:57:00,36.6,29.4,30.22,SW,229,0.0,0.0,75,0.00,,,0.11,Wunderground v.1.15,2013-04-26 02:57:00,
2013-04-25 22:02:00,36.3,29.8,30.21,SSW,212,0.0,0.0,77,0.00,,,0.11,Wunderground v.1.15,2013-04-26 03:02:00,
2013-04-25 22:08:00,35.9,29.4,30.22,SSW,213,0.0,0.0,77,0.00,,,0.11,Wunderground v.1.15,2013-04-26 03:08:00,
2013-04-25 22:13:00,35.8,29.3,30.21,SSW,195,0.0,0.0,77,0.00,,,0.11,Wunderground v.1.15,2013-04-26 03:13:00,
2013-04-25 22:19:00,35.7,29.2,30.22,SSW,195,0.0,0.0,77,0.00,,,0.11,Wunderground v.1.15,2013-04-26 03:19:00,
2013-04-25 22:25:00,35.7,29.2,30.21,SSW,195,0.0,0.0,77,0.00,,,0.11,Wunderground v.1.15,2013-04-26 03:25:00,
2013-04-25 22:31:00,35.6,29.1,30.21,SSW,195,0.0,0.0,77,0.00,,,0.11,Wunderground v.1.15,2013-04-26 03:31:00,
2013-04-25 22:37:00,35.5,29.3,30.21,SSW,195,0.0,0.0,78,0.00,,,0.11,Wunderground v.1.15,2013-04-26 03:37:00,
2013-04-25 22:43:00,35.3,29.1,30.21,SSW,195,0.0,0.0,78,0.00,,,0.11,Wunderground v.1.15,2013-04-26 03:43:00,
2013-04-25 22:48:00,35.2,29.3,30.21,SSW,195,0.0,0.0,79,0.00,,,0.11,Wunderground v.1.15,2013-04-26 03:48:00,
2013-04-25 22:54:00,35.1,29.6,30.22,SSW,194,0.0,0.0,80,0.00,,,0.11,Wunderground v.1.15,2013-04-26 03:54:00,
2013-04-25 23:00:00,34.6,29.1,30.22,SSW,194,0.0,0.0,80,0.00,,,0.11,Wunderground v.1.15,2013-04-26 04:00:00,
2013-04-25 23:01:00,34.6,29.4,30.22,SSW,194,0.0,0.0,81,0.00,,,0.11,Wunderground v.1.15,2013-04-26 04:01:00,
2013-04-25 23:02:00,34.5,29.3,30.22,SSW,194,0.0,0.0,81,0.00,,,0.11,Wunderground v.1.15,2013-04-26 04:02:00,
2013-04-25 23:03:00,34.4,29.2,30.22,SSW,194,0.0,0.0,81,0.00,,,0.11,Wunderground v.1.15,2013-04-26 04:03:00,
2013-04-25 23:06:00,34.3,29.1,30.22,SSW,194,0.0,0.0,81,0.00,,,0.11,Wunderground v.1.15,2013-04-26 04:06:00,
2013-04-25 23:08:00,34.2,29.0,30.22,SSW,194,0.0,0.0,81,0.00,,,0.11,Wunderground v.1.15,2013-04-26 04:08:00,
2013-04-25 23:14:00,33.9,29.0,30.22,South,169,0.0,0.0,82,0.00,,,0.11,Wunderground v.1.15,2013-04-26 04:14:00,
2013-04-25 23:20:00,33.7,28.8,30.22,South,169,0.0,0.0,82,0.00,,,0.11,Wunderground v.1.15,2013-04-26 04:20:00,
2013-04-25 23:26:00,33.7,29.1,30.22,SSE,166,0.0,0.0,83,0.00,,,0.11,Wunderground v.1.15,2013-04-26 04:26:00,
2013-04-25 23:32:00,33.7,29.1,30.22,SSE,160,0.0,0.0,83,0.00,,,0.11,Wunderground v.1.15,2013-04-26 04:32:00,
2013-04-25 23:38:00,33.4,28.8,30.21,SSE,158,0.0,0.0,83,0.00,,,0.11,Wunderground v.1.15,2013-04-26 04:38:00,
2013-04-25 23:44:00,33.3,28.7,30.21,SSE,158,0.0,0.0,83,0.00,,,0.11,Wunderground v.1.15,2013-04-26 04:44:00,
2013-04-25 23:49:00,33.2,28.9,30.21,SSE,157,0.0,0.0,84,0.00,,,0.11,Wunderground v.1.15,2013-04-26 04:49:00,
2013-04-25 23:55:00,33.0,28.7,30.21,SSE,157,0.0,0.0,84,0.00,,,0.11,Wunderground v.1.15,2013-04-26 04:55:00,